EDT,Max TemperatureF,Mean TemperatureF,Min TemperatureF,Max Dew PointF,MeanDew PointF,Min DewpointF,Max Humidity, Mean Humidity, Min Humidity, Max Sea Level PressureIn, Mean Sea Level PressureIn, Min Sea Level PressureIn, Max VisibilityMiles, Mean VisibilityMiles, Min VisibilityMiles, Max Wind SpeedMPH, Mean Wind SpeedMPH, Max Gust SpeedMPH,PrecipitationIn, CloudCover, Events, WindDirDegrees
2012-4-1,82,71,60,64,61,59,100,77,45,29.92,29.87,29.82,10,10,0,10,5,,0.00,0,,276
2012-4-2,87,76,64,64,62,57,100,69,35,29.89,29.85,29.82,10,10,2,17,7,21,0.00,1,,266
2012-4-3,86,74,62,66,63,61,100,72,43,29.98,29.93,29.88,10,9,5,8,4,,0.00,0,,259
2012-4-4,86,75,64,66,64,63,100,77,45,29.96,29.88,29.76,10,9,2,15,4,24,0.00,5,,251
2012-4-5,86,77,68,66,63,55,94,70,35,29.80,29.76,29.68,10,10,10,15,7,20,0.00,2,,245
2012-4-6,71,66,60,64,60,52,94,82,68,29.94,29.79,29.69,10,10,2,18,6,24,0.00,7,,313
2012-4-7,69,56,42,50,44,37,100,68,33,30.27,30.18,30.10,10,9,0,15,4,25,0.00,0,,40
2012-4-8,77,60,44,52,45,41,100,64,29,30.25,30.18,30.09,10,9,1,15,2,21,0.00,0,,209
2012-4-9,77,66,55,61,53,46,94,65,36,30.12,30.06,30.00,10,9,4,15,7,18,0.00,0,,172
2012-4-10,80,66,51,61,50,41,100,64,26,30.09,30.02,29.96,10,9,1,12,4,,0.00,0,,227
2012-4-11,77,64,51,52,42,34,88,48,21,30.07,30.01,29.95,10,10,7,17,6,22,0.00,0,,290
2012-4-12,64,55,46,46,44,37,87,62,48,30.21,30.15,30.06,10,10,10,17,7,26,0.00,0,,48
2012-4-13,71,58,46,54,48,45,100,67,41,30.26,30.19,30.14,10,10,10,15,4,20,0.00,2,,64
2012-4-14,77,64,50,63,54,45,94,70,46,30.32,30.26,30.22,10,10,10,17,5,22,0.00,4,,106
2012-4-15,78,73,68,63,59,54,83,65,44,30.28,30.24,30.21,10,10,10,15,8,23,0.00,4,,151
2012-4-16,82,70,57,64,60,54,100,71,39,30.27,30.22,30.18,10,9,0,15,5,20,0.00,1,,158
2012-4-17,82,71,60,64,61,52,100,69,35,30.22,30.16,30.10,10,9,0,14,5,20,0.00,1,,160
2012-4-18,80,72,64,64,62,59,100,74,48,30.10,30.05,29.99,10,10,1,13,7,17,0.00,3,Thunderstorm,206
2012-4-19,77,70,64,68,66,63,94,87,73,30.03,29.97,29.93,10,9,4,17,5,17,0.00,8,,50
2012-4-20,78,73,68,68,66,64,94,82,65,29.96,29.91,29.85,10,10,4,16,8,22,0.00,7,,73
2012-4-21,78,71,64,70,65,61,100,82,54,29.86,29.76,29.64,10,9,1,10,3,10,0.00,5,Thunderstorm,157
2012-4-22,77,68,60,68,60,43,100,77,49,29.70,29.57,29.51,10,9,1,17,6,26,0.00,6,,297
2012-4-23,66,57,48,43,36,32,71,48,28,29.90,29.76,29.70,10,10,10,24,9,32,0.00,1,,280
2012-4-24,71,56,42,43,35,32,71,46,25,29.99,29.93,29.89,10,10,10,20,7,29,0.00,0,,272
2012-4-25,82,66,51,50,46,41,77,48,28,30.08,30.02,29.96,10,10,10,17,10,23,0.00,0,,244
2012-4-26,87,72,57,61,54,50,94,55,29,30.09,30.04,29.96,10,10,10,18,11,24,0.00,0,,238
2012-4-27,87,74,62,66,60,52,94,66,29,30.12,30.07,30.01,10,10,10,16,10,22,0.00,0,,227
2012-4-28,87,74,60,68,62,54,94,66,33,30.14,30.09,30.05,10,10,10,13,6,18,0.00,0,,175
2012-4-29,86,74,62,72,67,61,100,77,54,30.16,30.13,30.10,10,8,0,12,5,17,0.00,1,,154
2012-4-30,82,71,60,72,65,59,100,81,58,30.20,30.16,30.12,10,7,0,14,3,21,0.00,4,,119